Location: L�beck
(53.8752°N, 10.6787°E)
Time: 12:06:49
(UTC+01:00)

ISS - Pass Details

Date: 15 November 2017
Orbit: 402 x 407 km, 51.6° (Epoch: 23 November)

Event Time Altitude Azimuth Distance (km) Brightness Sun altitude
Exits shadow 04:55:11 17° 147° (SSE) 1,122 -1.3 -24.6°
Drops below altitude 10° 04:56:08 10° 137° (SE) 1,453 -0.5 -24.5°
Sets 04:58:19 0° 128° (SE) 2,310 0.8 -24.2°
